FW0155 Weather Reports


Display with metric or nautical units.
time (UTC)temp
F
wind
direction
speed
MPH
gust
MPH
rain 1hr
in
rain 24hr
in
rain mn
in
humidity
%
barometer
mb
20260508023332 44 182 0.0 0.0 0.00 0.00 0.00 90 1017.1
20260508022331 44 182 0.0 0.0 0.00 0.00 0.00 90 1017.2
20260508021331 45 182 0.0 0.0 0.00 0.00 0.00 89 1017.2
20260508020302 45 182 0.0 0.0 0.00 0.00 0.00 88 1017.1
20260508015300 46 182 0.0 0.0 0.00 0.00 0.00 88 1017.1
20260508014301 47 182 0.0 0.0 0.00 0.00 0.00 88 1017.0
20260508013259 47 182 0.0 0.0 0.00 0.00 0.00 88 1017.2
20260508012742 47 182 0.0 0.0 0.00 0.00 0.00 87 1017.0
20260508011258 48 182 0.0 0.0 0.00 0.00 0.00 87 1017.0
20260508010257 48 182 0.0 0.0 0.00 0.00 0.00 87 1017.0
20260508005258 48 182 0.0 0.0 0.00 0.00 0.00 87 1017.0
20260508003257 48 186 0.0 0.0 0.00 0.00 0.00 87 1017.0
20260508002257 48 186 0.0 0.0 0.00 0.00 0.00 86 1017.2
20260508001255 48 186 0.0 1.0 0.00 0.00 0.00 86 1017.1
20260508000227 48 179 0.0 0.0 0.00 0.00 0.00 86 1017.2
20260507235225 48 179 0.0 0.0 0.00 0.00 0.00 85 1017.3
20260507234224 48 179 0.0 1.0 0.00 0.00 0.00 85 1017.3
20260507233226 49 173 0.0 0.0 0.00 0.00 0.00 85 1017.4
20260507232224 49 172 0.0 1.0 0.00 0.00 0.00 85 1017.4
20260507231223 49 166 0.0 1.0 0.00 0.00 0.00 84 1017.6
20260507225223 49 166 0.0 1.0 0.00 0.00 0.00 84 1017.6
20260507224222 49 217 0.0 1.0 0.00 0.00 0.00 83 1017.8
20260507223222 49 172 0.0 1.0 0.00 0.00 0.00 83 1017.7
20260507222221 49 193 0.0 1.0 0.00 0.00 0.00 83 1017.6
20260507221223 49 204 0.0 2.0 0.00 0.00 0.00 82 1017.5
20260507220222 49 167 0.0 2.0 0.00 0.00 0.00 82 1017.7
20260507215150 49 182 0.0 2.0 0.00 0.00 0.00 82 1017.9
20260507214150 49 163 1.0 2.0 0.00 0.00 0.00 81 1017.9
20260507213150 49 146 0.0 2.0 0.00 0.00 0.00 81 1017.8
20260507212149 49 192 0.0 2.0 0.00 0.00 0.00 80 1017.8
20260507211149 50 173 0.0 2.0 0.00 0.00 0.00 80 1017.8
20260507210150 50 198 0.0 2.0 0.00 0.00 0.00 79 1017.7
20260507205148 50 178 0.0 1.0 0.00 0.00 0.00 79 1017.6
20260507204147 50 195 0.0 3.0 0.00 0.00 0.00 79 1017.3
20260507203148 50 182 0.0 2.0 0.00 0.00 0.00 78 1017.4
20260507202148 50 171 1.0 3.0 0.00 0.00 0.00 78 1017.2
20260507201146 50 240 1.0 3.0 0.00 0.00 0.00 77 1017.2
20260507200631 50 208 0.0 2.0 0.00 0.00 0.00 77 1017.0
20260507195147 50 197 0.0 2.0 0.00 0.00 0.00 77 1017.1
20260507194146 50 184 0.0 1.0 0.00 0.00 0.00 77 1016.9
20260507193625 51 173 0.0 2.0 0.00 0.00 0.00 76 1017.0
20260507192146 51 228 0.0 2.0 0.00 0.00 0.00 75 1016.8
20260507191143 51 165 0.0 2.0 0.00 0.00 0.00 75 1017.0
20260507190143 51 146 1.0 2.0 0.00 0.00 0.00 74 1017.0
20260507185145 51 150 0.0 3.0 0.00 0.00 0.00 73 1016.9
20260507184620 51 180 1.0 3.0 0.00 0.00 0.00 73 1017.1
20260507183143 52 255 2.0 2.0 0.00 0.00 0.00 72 1017.0
20260507182143 52 190 1.0 2.0 0.00 0.00 0.00 72 1016.8
20260507181141 52 208 0.0 4.0 0.00 0.00 0.00 71 1016.8
20260507180141 52 201 0.0 4.0 0.00 0.00 0.00 70 1016.6
20260507175140 52 225 1.0 3.0 0.00 0.00 0.00 70 1016.8
20260507174140 53 200 0.0 3.0 0.00 0.00 0.00 69 1016.7
20260507173140 53 222 0.0 2.0 0.00 0.00 0.00 69 1016.7
20260507172140 53 173 1.0 4.0 0.00 0.00 0.00 68 1016.7
20260507171620 53 215 2.0 4.0 0.00 0.00 0.00 68 1016.7
20260507170545 53 224 0.0 3.0 0.00 0.00 0.00 68 1016.7
20260507165110 53 231 0.0 4.0 0.00 0.00 0.00 68 1016.7
20260507164108 53 249 2.0 4.0 0.00 0.00 0.00 67 1016.7
20260507163109 54 162 0.0 4.0 0.00 0.00 0.00 66 1016.7
20260507162547 54 242 1.0 6.0 0.00 0.00 0.00 65 1016.8
20260507161546 54 234 1.0 4.0 0.00 0.00 0.00 64 1016.7
20260507160108 55 241 2.0 8.0 0.00 0.00 0.00 64 1016.7
20260507155106 55 217 2.0 4.0 0.00 0.00 0.00 64 1016.6
20260507154037 55 154 2.0 4.0 0.00 0.00 0.00 63 1016.6
20260507153035 55 237 0.0 6.0 0.00 0.00 0.00 64 1016.3
20260507152035 55 210 2.0 3.0 0.00 0.00 0.00 63 1016.7
20260507151035 55 241 2.0 3.0 0.00 0.00 0.00 62 1016.6
20260507150521 55 219 2.0 3.0 0.00 0.00 0.00 61 1016.7
20260507145033 55 248 1.0 4.0 0.00 0.00 0.00 61 1016.7
20260507144033 56 220 0.0 4.0 0.00 0.00 0.00 60 1016.6
20260507143033 56 230 1.0 3.0 0.00 0.00 0.00 58 1016.8
20260507142035 56 183 0.0 6.0 0.00 0.00 0.00 58 1016.7
20260507141032 57 219 1.0 6.0 0.00 0.00 0.00 58 1016.8
20260507140033 56 150 2.0 6.0 0.00 0.00 0.00 60 1016.9
20260507135032 56 213 3.0 8.0 0.00 0.00 0.00 60 1016.9
20260507134001 59 205 1.0 7.0 0.00 0.00 0.00 56 1017.0
20260507133002 59 251 2.0 8.0 0.00 0.00 0.00 56 1016.8
20260507131959 61 280 2.0 7.0 0.00 0.00 0.00 52 1016.9
20260507131438 61 295 2.0 6.0 0.00 0.00 0.00 52 1017.0
20260507130446 60 120 3.0 6.0 0.00 0.00 0.00 52 1016.9
20260507124959 60 237 3.0 4.0 0.00 0.01 0.00 52 1017.2
20260507123959 56 250 0.0 2.0 0.00 0.02 0.00 58 1017.1
20260507122959 56 270 1.0 4.0 0.00 0.02 0.00 58 1017.1
20260507121959 57 271 1.0 4.0 0.00 0.02 0.00 57 1016.9
20260507121433 59 273 1.0 2.0 0.00 0.02 0.00 53 1017.2
20260507115958 59 228 1.0 2.0 0.00 0.02 0.00 55 1017.1
20260507114959 56 278 1.0 4.0 0.00 0.02 0.00 58 1017.2
20260507113956 56 283 1.0 4.0 0.00 0.03 0.00 59 1017.2
20260507112956 55 231 1.0 3.0 0.00 0.03 0.00 60 1017.2
20260507112440 55 167 0.0 2.0 0.00 0.04 0.00 62 1017.4
20260507110955 55 260 0.0 3.0 0.00 0.05 0.00 61 1017.6
20260507110446 55 263 1.0 4.0 0.00 0.07 0.00 61 1017.7
20260507104955 54 261 1.0 1.0 0.00 0.09 0.00 65 1017.5
20260507104428 53 244 0.0 2.0 0.00 0.09 0.00 64 1017.5
20260507102954 53 274 1.0 2.0 0.00 0.10 0.00 64 1017.6
20260507102440 53 264 1.0 3.0 0.00 0.12 0.00 65 1017.3
20260507100922 54 234 0.0 3.0 0.00 0.14 0.00 64 1017.4
20260507095922 53 246 0.0 3.0 0.00 0.15 0.00 64 1017.4
20260507093922 55 253 1.0 3.0 0.00 0.15 0.00 60 1017.5
20260507092922 54 226 1.0 2.0 0.00 0.15 0.00 61 1017.4
20260507091921 53 223 0.0 2.0 0.00 0.15 0.00 61 1017.4
20260507090920 53 249 1.0 2.0 0.00 0.15 0.00 61 1017.4
20260507085919 53 234 1.0 2.0 0.00 0.15 0.00 62 1017.2
20260507084850 53 236 0.0 2.0 0.00 0.15 0.00 62 1017.5
20260507083849 53 255 0.0 3.0 0.00 0.15 0.00 62 1017.3
20260507082848 54 234 0.0 1.0 0.00 0.15 0.00 61 1017.2
20260507081848 51 225 0.0 3.0 0.00 0.16 0.00 67 1017.2
20260507080817 51 247 0.0 3.0 0.00 0.17 0.00 66 1017.1
20260507075824 51 160 0.0 2.0 0.00 0.17 0.00 67 1017.1
20260507074818 50 242 0.0 1.0 0.00 0.18 0.00 69 1017.1
20260507073816 50 259 0.0 1.0 0.00 0.20 0.00 71 1017.1
20260507072748 50 276 0.0 1.0 0.00 0.21 0.00 72 1016.9
20260507071745 49 276 0.0 1.0 0.00 0.23 0.00 74 1016.8
20260507070747 49 276 1.0 2.0 0.00 0.23 0.00 73 1016.9
20260507065745 49 231 0.0 1.0 0.00 0.23 0.00 74 1016.9
20260507064746 49 232 0.0 1.0 0.00 0.23 0.00 75 1016.8
20260507063744 49 229 0.0 1.0 0.00 0.23 0.00 76 1016.8
20260507062743 49 228 0.0 1.0 0.00 0.24 0.00 76 1016.9
20260507061745 49 232 0.0 1.0 0.00 0.24 0.00 76 1016.7
20260507060744 49 286 0.0 1.0 0.00 0.25 0.00 77 1016.7
20260507060218 48 286 0.0 1.0 0.00 0.25 0.00 78 1016.4
20260507054742 47 286 0.0 1.0 0.00 0.25 0.00 82 1016.3
20260507053743 47 286 0.0 1.0 0.00 0.25 0.00 84 1016.3
20260507052741 46 286 0.0 0.0 0.00 0.25 0.00 86 1016.2
20260507051710 46 286 0.0 0.0 0.00 0.25 0.00 87 1016.2
20260507050710 46 286 0.0 0.0 0.00 0.25 0.00 87 1016.2
20260507045710 46 286 0.0 0.0 0.00 0.25 0.00 87 1016.0
20260507044710 46 286 0.0 0.0 0.00 0.25 0.00 87 1016.1
20260507043709 45 286 0.0 0.0 0.00 0.25 0.00 87 1016.0
20260507042710 45 286 0.0 0.0 0.00 0.25 0.00 87 1015.8
20260507042146 45 286 0.0 1.0 0.00 0.25 0.00 87 1016.0
20260507040638 46 286 0.0 0.0 0.00 0.25 0.00 86 1015.7
20260507035639 46 286 0.0 1.0 0.00 0.25 0.00 85 1015.7
20260507034637 46 286 0.0 1.0 0.00 0.25 0.00 84 1015.9
20260507033637 46 286 0.0 0.0 0.00 0.25 0.00 84 1015.7
20260507032636 46 286 0.0 0.0 0.00 0.25 0.00 84 1015.7
20260507031606 46 286 0.0 0.0 0.00 0.25 0.00 84 1015.6
20260507031049 46 286 0.0 0.0 0.00 0.25 0.00 84 1015.5
20260507025606 46 286 0.0 0.0 0.00 0.25 0.00 84 1015.4
20260507024604 46 286 0.0 0.0 0.00 0.25 0.00 84 1015.5
20260507024014 46 286 0.0 0.0 0.00 0.25 0.00 84 1015.6